Location: Chester
(43.2647°N, 72.5958°W)
Time: 21:06:50
(UTC-04:00)

N. Korean satellite - Visible Passes

Search period start: 23 March 2019 00:00
Search period end: 02 April 2019 00:00
Orbit: 456 x 510 km, 97.2° (Epoch: 22 March)

Date Brightness Start Highest point End Pass type
(mag) Time Alt. Az. Time Alt. Az. Time Alt. Az.
24 Mar 9.8 06:09:04 10° NE 06:11:28 17° E 06:13:52 10° SE visible
28 Mar 10.0 06:03:25 10° ENE 06:05:31 15° E 06:07:38 10° SE visible
01 Apr 10.1 05:57:47 10° ENE 05:59:31 13° E 06:01:15 10° ESE visible
